TimeCDT,TemperatureF,Dew PointF,Humidity,Sea Level PressureIn,VisibilityMPH,Wind Direction,Wind SpeedMPH,Gust SpeedMPH,PrecipitationIn,Events,Conditions,WindDirDegrees,DateUTC
12:15 AM,77.0,64.4,65,30.00,10.0,Calm,Calm,-,N/A,,Clear,0,2013-07-11 05:15:00
12:35 AM,75.2,66.2,73,30.00,10.0,Calm,Calm,-,N/A,,Clear,0,2013-07-11 05:35:00
12:55 AM,75.2,66.2,73,30.01,10.0,North,4.6,-,N/A,,Clear,10,2013-07-11 05:55:00
1:15 AM,75.2,66.2,73,30.02,10.0,North,4.6,-,N/A,,Clear,10,2013-07-11 06:15:00
1:35 AM,75.2,66.2,73,30.02,10.0,Calm,Calm,-,N/A,,Clear,0,2013-07-11 06:35:00
1:55 AM,73.4,66.2,78,30.02,10.0,Calm,Calm,-,N/A,,Clear,0,2013-07-11 06:55:00
2:35 AM,73.4,66.2,78,30.03,10.0,Calm,Calm,-,N/A,,Clear,0,2013-07-11 07:35:00
2:55 AM,73.4,66.2,78,30.02,10.0,Calm,Calm,-,N/A,,Clear,0,2013-07-11 07:55:00
3:15 AM,73.4,66.2,78,30.02,10.0,North,4.6,-,N/A,,Clear,10,2013-07-11 08:15:00
3:35 AM,71.6,66.2,83,30.02,10.0,South,3.5,-,N/A,,Clear,180,2013-07-11 08:35:00
3:55 AM,71.6,66.2,83,30.02,10.0,South,3.5,-,N/A,,Clear,170,2013-07-11 08:55:00
4:15 AM,71.6,66.2,83,30.01,10.0,SSE,3.5,-,N/A,,Clear,150,2013-07-11 09:15:00
4:36 AM,71.6,66.2,83,30.02,10.0,Calm,Calm,-,N/A,,Clear,0,2013-07-11 09:36:00
4:55 AM,71.6,66.2,83,30.02,10.0,Calm,Calm,-,N/A,,Clear,0,2013-07-11 09:55:00
5:15 AM,71.6,64.4,78,30.02,10.0,Calm,Calm,-,N/A,,Clear,0,2013-07-11 10:15:00
5:35 AM,71.6,64.4,78,30.01,10.0,Calm,Calm,-,N/A,,Clear,0,2013-07-11 10:35:00
5:55 AM,71.6,66.2,83,30.01,10.0,SSE,4.6,-,N/A,,Clear,160,2013-07-11 10:55:00
6:15 AM,71.6,66.2,83,30.01,10.0,South,3.5,-,N/A,,Clear,180,2013-07-11 11:15:00
6:35 AM,71.6,66.2,83,30.01,10.0,Calm,Calm,-,N/A,,Clear,0,2013-07-11 11:35:00
6:56 AM,73.4,68.0,83,30.02,10.0,Calm,Calm,-,N/A,,Clear,0,2013-07-11 11:56:00
7:15 AM,75.2,68.0,78,30.03,10.0,Calm,Calm,-,N/A,,Clear,0,2013-07-11 12:15:00
7:35 AM,77.0,68.0,74,30.03,10.0,NNE,4.6,-,N/A,,Clear,20,2013-07-11 12:35:00
7:55 AM,78.8,69.8,74,30.04,10.0,NNE,5.8,-,N/A,,Clear,20,2013-07-11 12:55:00
8:15 AM,78.8,69.8,74,30.04,10.0,ENE,3.5,-,N/A,,Clear,60,2013-07-11 13:15:00
8:35 AM,80.6,69.8,70,30.04,10.0,ENE,4.6,-,N/A,,Clear,60,2013-07-11 13:35:00
8:55 AM,82.4,71.6,70,30.04,10.0,East,5.8,-,N/A,,Clear,80,2013-07-11 13:55:00
9:16 AM,84.2,71.6,66,30.04,10.0,East,6.9,-,N/A,,Clear,80,2013-07-11 14:16:00
9:35 AM,84.2,71.6,66,30.03,10.0,ENE,6.9,-,N/A,,Clear,70,2013-07-11 14:35:00
9:55 AM,84.2,71.6,66,30.03,10.0,East,9.2,-,N/A,,Clear,100,2013-07-11 14:55:00
10:15 AM,86.0,71.6,62,30.03,10.0,East,4.6,-,N/A,,Clear,100,2013-07-11 15:15:00
10:35 AM,84.2,71.6,66,30.03,10.0,East,8.1,-,N/A,,Clear,100,2013-07-11 15:35:00
10:55 AM,86.0,71.6,62,30.04,10.0,ESE,5.8,-,N/A,,Clear,110,2013-07-11 15:55:00
11:15 AM,87.8,71.6,58,30.04,10.0,East,8.1,-,N/A,,Clear,90,2013-07-11 16:15:00
11:35 AM,89.6,71.6,55,30.04,10.0,East,6.9,-,N/A,,Clear,80,2013-07-11 16:35:00
11:55 AM,89.6,71.6,55,30.04,10.0,ESE,6.9,-,N/A,,Partly Cloudy,110,2013-07-11 16:55:00
12:15 PM,89.6,71.6,55,30.04,10.0,East,5.8,-,N/A,,Partly Cloudy,90,2013-07-11 17:15:00
12:36 PM,89.6,71.6,55,30.04,10.0,Calm,Calm,-,N/A,,Scattered Clouds,0,2013-07-11 17:36:00
12:55 PM,89.6,69.8,52,30.04,10.0,NNE,4.6,-,N/A,,Scattered Clouds,30,2013-07-11 17:55:00
1:15 PM,91.4,69.8,49,30.03,10.0,East,8.1,-,N/A,,Partly Cloudy,100,2013-07-11 18:15:00
1:36 PM,91.4,69.8,49,30.03,10.0,ENE,9.2,-,N/A,,Scattered Clouds,70,2013-07-11 18:36:00
1:55 PM,91.4,69.8,49,30.03,10.0,NNE,8.1,-,N/A,,Mostly Cloudy,30,2013-07-11 18:55:00
2:15 PM,91.4,66.2,43,30.02,10.0,East,8.1,-,N/A,,Mostly Cloudy,80,2013-07-11 19:15:00
2:35 PM,91.4,68.0,46,30.02,10.0,NNE,4.6,-,N/A,,Scattered Clouds,30,2013-07-11 19:35:00
2:55 PM,93.2,66.2,41,30.02,10.0,East,6.9,-,N/A,,Partly Cloudy,90,2013-07-11 19:55:00
3:15 PM,93.2,66.2,41,30.02,10.0,NE,6.9,-,N/A,,Clear,50,2013-07-11 20:15:00
3:35 PM,93.2,64.4,38,30.01,10.0,North,9.2,-,N/A,,Clear,10,2013-07-11 20:35:00
3:56 PM,93.2,64.4,38,30.00,10.0,North,9.2,-,N/A,,Clear,360,2013-07-11 20:56:00
4:15 PM,95.0,62.6,34,30.00,10.0,ENE,8.1,-,N/A,,Clear,60,2013-07-11 21:15:00
4:35 PM,93.2,64.4,38,30.00,10.0,ENE,10.4,17.3,N/A,,Clear,70,2013-07-11 21:35:00
4:56 PM,93.2,64.4,38,29.99,10.0,NNE,9.2,-,N/A,,Clear,30,2013-07-11 21:56:00
5:15 PM,93.2,62.6,36,29.98,10.0,NE,9.2,-,N/A,,Clear,50,2013-07-11 22:15:00
5:35 PM,91.4,62.6,38,29.98,10.0,NNE,10.4,-,N/A,,Clear,30,2013-07-11 22:35:00
5:55 PM,91.4,62.6,38,29.97,10.0,ENE,10.4,-,N/A,,Clear,60,2013-07-11 22:55:00
6:15 PM,91.4,60.8,36,29.96,10.0,ENE,10.4,-,N/A,,Clear,60,2013-07-11 23:15:00
6:35 PM,91.4,60.8,36,29.96,10.0,NE,9.2,-,N/A,,Clear,40,2013-07-11 23:35:00
6:55 PM,91.4,60.8,36,29.96,10.0,NE,9.2,-,N/A,,Clear,40,2013-07-11 23:55:00
7:15 PM,89.6,60.8,38,29.96,10.0,NE,9.2,-,N/A,,Clear,50,2013-07-12 00:15:00
7:35 PM,89.6,60.8,38,29.96,10.0,ENE,9.2,-,N/A,,Clear,70,2013-07-12 00:35:00
7:55 PM,89.6,60.8,38,29.97,10.0,ENE,10.4,-,N/A,,Clear,60,2013-07-12 00:55:00
8:15 PM,87.8,60.8,40,29.97,10.0,NE,8.1,-,N/A,,Clear,50,2013-07-12 01:15:00
8:35 PM,86.0,60.8,43,29.97,10.0,NE,8.1,-,N/A,,Clear,50,2013-07-12 01:35:00
8:55 PM,84.2,60.8,45,29.98,10.0,ENE,6.9,-,N/A,,Clear,60,2013-07-12 01:55:00
9:15 PM,84.2,60.8,45,29.99,10.0,NE,6.9,-,N/A,,Clear,50,2013-07-12 02:15:00
9:35 PM,82.4,60.8,48,30.00,10.0,ENE,8.1,-,N/A,,Clear,60,2013-07-12 02:35:00
9:55 PM,82.4,60.8,48,30.00,10.0,ENE,6.9,-,N/A,,Clear,60,2013-07-12 02:55:00
10:15 PM,80.6,60.8,51,30.00,10.0,ENE,6.9,-,N/A,,Clear,60,2013-07-12 03:15:00
10:36 PM,80.6,60.8,51,30.00,10.0,ENE,6.9,-,N/A,,Clear,70,2013-07-12 03:36:00
10:55 PM,80.6,60.8,51,30.00,10.0,ENE,5.8,-,N/A,,Clear,70,2013-07-12 03:55:00
11:15 PM,80.6,59.0,48,30.00,10.0,East,6.9,-,N/A,,Clear,80,2013-07-12 04:15:00
11:35 PM,78.8,57.2,47,30.01,10.0,East,8.1,-,N/A,,Clear,90,2013-07-12 04:35:00